Powrót do katalogu

STARLINK-11348

AktywnyŁącznośćVLEO
NORAD 61694·PAYLOAD·🇺🇸 United States

Wystrzelony Oct 30, 2024 z Vandenberg Space Force Base

Loading…

Następne Przeloty (najbliższe 24 godziny)

TLE

ŚwieżeSource: CelesTrak SupGP

Epoka: Sep 14, 2026, 20:45 UTC

1 61694C 24195H   26257.86506944  .00005444  00000+0  44821-4 0  2577
2 61694  53.1576 173.6471 0001113  97.8204   1.3881 15.69718625    12

Śledź STARLINK-11348 w czasie rzeczywistym z AllMySat

Download on the App Store